Flag for Qatar Weather past 2 weeks in Al Khor, Qatar

Now
88 °F

Sunny.


Feels Like: 85 °F
Forecast: 72 / 83 °F
Wind: 9 mph from Southeast

Location: Al Udeid

Current Time: Apr 1, 2015 at 6:28:17 PM

Latest Report: Apr 1, 2015 at 5:58 PM


Visibility: N/A

Pressure: 29.60 "Hg

Humidity: 27%

Dew point: 50 °F

Location of Al KhorLocation

Historic Weather in Al Khor — Graph

°F

Al Khor temperature yesterday

Maximum temperature yesterday: 93 °F (at 1:58 PM)
Minimum temperature yesterday: 73 °F (at 11:58 PM)
Average temperature yesterday: 81 °F

Past Weeks' High & Low Weather Summary

 TemperatureHumidityPressure
High95 °F (Apr 1, 1:58 PM)100% (Mar 23, 1:58 AM)30.12 "Hg (Mar 23, 1:58 AM)
Low58 °F (Mar 24, 5:58 AM)7% (Mar 29, 12:58 PM)29.60 "Hg (Apr 1, 4:58 PM)
Average76 °F59%29.92 "Hg
* Reported Mar 17 4:58 PM — Apr 1 4:58 PM, Al Khor, Weather by CustomWeather, © 2015

Note: Actual official high and low records may vary slightly from our data, if they occured in-between our weather recording intervals... More about our weather records

Advertising

Al Khor weather history for previous 24 hours

 ConditionsComfort  
Time TempWeatherWind HumidityBarometerVisibility
4:58 PM
Wed, Apr 1
91 °FSunny.8 mph24%29.60 "HgN/A
3:58 PM92 °FPassing clouds.12 mph22%29.62 "HgN/A
2:58 PM94 °FSunny.10 mph19%29.64 "HgN/A
1:58 PM95 °FPassing clouds.13 mph17%29.66 "HgN/A
12:58 PM94 °FPassing clouds.7 mph15%29.69 "HgN/A
11:58 AM91 °FPassing clouds.6 mph16%29.73 "HgN/A
10:58 AM87 °FClear.5 mph30%29.76 "HgN/A
9:58 AM83 °FClear.5 mph35%29.77 "HgN/A
8:58 AM79 °FClear.5 mph47%29.79 "Hg5 mi
7:58 AM75 °FClear.1 mph54%29.79 "Hg6 mi
6:58 AM71 °FHaze.6 mph66%29.77 "Hg6 mi
5:58 AM70 °FClear.5 mph67%29.76 "Hg6 mi
4:58 AM71 °FClear.6 mph65%29.75 "HgN/A
3:58 AM71 °FClear.13 mph63%29.74 "HgN/A
2:58 AM72 °FClear.16 mph59%29.75 "HgN/A
1:58 AM72 °FClear.16 mph58%29.77 "HgN/A
12:58 AM73 °FSunny.18 mph57%29.79 "HgN/A
11:58 PM
Tue, Mar 31
73 °FSunny.17 mph61%29.81 "HgN/A
10:58 PM74 °FSunny.16 mph59%29.83 "HgN/A
9:58 PM75 °FSunny.15 mph57%29.84 "HgN/A
8:58 PM75 °FPassing clouds.17 mph64%29.84 "HgN/A
7:58 PM77 °FSunny.17 mph62%29.83 "HgN/A
6:58 PM79 °FSunny.18 mph43%29.81 "HgN/A
Weather by CustomWeather, © 2015

See weather overviewHow to use our weather pages